Year,Month,Day,Hour,Minute,Value (Times are PST for windspeed in km/hr)
2011,07,31,00,00,10.10
2011,07,31,00,05,5.80
2011,07,31,00,06,6.40
2011,07,31,00,07,4.00
2011,07,31,00,08,7.10
2011,07,31,00,09,6.40
2011,07,31,00,10,8.40
2011,07,31,00,11,9.10
2011,07,31,00,12,13.00
2011,07,31,00,13,6.90
2011,07,31,00,14,6.80
2011,07,31,00,15,12.60
2011,07,31,00,16,8.70
2011,07,31,00,17,8.10
2011,07,31,00,18,4.60
2011,07,31,00,19,12.60
2011,07,31,00,20,11.30
2011,07,31,00,21,9.30
2011,07,31,00,22,6.80
2011,07,31,00,23,12.60
2011,07,31,00,24,10.90
2011,07,31,00,25,9.90
2011,07,31,00,26,11.10
2011,07,31,00,27,7.10
2011,07,31,00,28,6.60
2011,07,31,00,29,9.90
2011,07,31,00,30,13.00
2011,07,31,00,31,4.80
2011,07,31,00,32,5.40
2011,07,31,00,33,8.90
2011,07,31,00,34,7.60
2011,07,31,00,35,10.90
2011,07,31,00,36,7.20
2011,07,31,00,37,8.90
2011,07,31,00,38,11.40
2011,07,31,00,39,7.90
2011,07,31,00,40,6.90
2011,07,31,00,41,6.00
2011,07,31,00,42,6.80
2011,07,31,00,43,9.10
2011,07,31,00,44,6.70
2011,07,31,00,45,5.70
2011,07,31,00,46,7.20
2011,07,31,00,47,4.70
2011,07,31,00,48,7.70
2011,07,31,00,49,6.30
2011,07,31,00,50,7.70
2011,07,31,00,51,10.80
2011,07,31,00,52,7.90
2011,07,31,00,53,7.40
2011,07,31,00,54,11.50
2011,07,31,00,55,9.60
2011,07,31,00,56,7.20
2011,07,31,00,57,11.00
2011,07,31,00,58,5.90
2011,07,31,00,59,6.20
2011,07,31,01,00,8.00
2011,07,31,01,01,7.40
2011,07,31,01,02,12.20
2011,07,31,01,03,9.40
2011,07,31,01,04,6.20
2011,07,31,01,05,10.40
2011,07,31,01,06,6.50
2011,07,31,01,07,11.60
2011,07,31,01,08,14.20
2011,07,31,01,09,9.40
2011,07,31,01,10,10.20
2011,07,31,01,11,9.70
2011,07,31,01,12,11.10
2011,07,31,01,13,10.20
2011,07,31,01,14,9.20
2011,07,31,01,15,5.70
2011,07,31,01,16,9.30
2011,07,31,01,17,9.50
2011,07,31,01,18,10.00
2011,07,31,01,19,11.40
2011,07,31,01,20,12.00
2011,07,31,01,21,11.70
2011,07,31,01,22,7.80
2011,07,31,01,23,4.20
2011,07,31,01,24,9.30
2011,07,31,01,25,7.40
2011,07,31,01,26,10.90
2011,07,31,01,27,8.20
2011,07,31,01,28,6.70
2011,07,31,01,29,11.60
2011,07,31,01,30,8.40
2011,07,31,01,31,5.30
2011,07,31,01,32,6.90
2011,07,31,01,33,5.40
2011,07,31,01,34,11.30
2011,07,31,01,35,6.70
2011,07,31,01,36,11.00
2011,07,31,01,37,12.70
2011,07,31,01,38,7.70
2011,07,31,01,39,8.70
2011,07,31,01,40,8.50
2011,07,31,01,41,8.20
2011,07,31,01,42,3.10
2011,07,31,01,43,2.90
2011,07,31,01,44,5.40
2011,07,31,01,45,3.40
2011,07,31,01,46,5.30
2011,07,31,01,47,5.30
2011,07,31,01,48,5.00
2011,07,31,01,49,4.10
2011,07,31,01,50,7.00
2011,07,31,01,51,3.50
2011,07,31,01,52,2.40
2011,07,31,01,53,1.80
2011,07,31,01,54,0.90
2011,07,31,01,55,0.00
2011,07,31,01,56,2.20
2011,07,31,01,57,2.70
2011,07,31,01,58,3.00
2011,07,31,01,59,2.30
2011,07,31,02,00,0.30
2011,07,31,02,01,0.10
2011,07,31,02,02,0.00
2011,07,31,02,03,0.20
2011,07,31,02,04,3.60
2011,07,31,02,05,0.50
2011,07,31,02,06,2.40
2011,07,31,02,07,4.30
2011,07,31,02,08,3.70
2011,07,31,02,09,1.60
2011,07,31,02,10,2.40
2011,07,31,02,11,3.40
2011,07,31,02,12,3.50
2011,07,31,02,13,3.00
2011,07,31,02,14,1.80
2011,07,31,02,15,0.00
2011,07,31,02,16,0.00
2011,07,31,02,17,0.00
2011,07,31,02,18,2.10
2011,07,31,02,19,4.80
2011,07,31,02,20,5.90
2011,07,31,02,21,7.90
2011,07,31,02,22,5.40
2011,07,31,02,23,3.30
2011,07,31,02,24,4.00
2011,07,31,02,25,4.40
2011,07,31,02,26,1.00
2011,07,31,02,27,0.00
2011,07,31,02,28,1.80
2011,07,31,02,29,0.10
2011,07,31,02,30,3.40
2011,07,31,02,31,1.60
2011,07,31,02,32,0.10
2011,07,31,02,33,0.00
2011,07,31,02,34,3.60
2011,07,31,02,35,0.00
2011,07,31,02,36,2.00
2011,07,31,02,37,2.50
2011,07,31,02,38,3.40
2011,07,31,02,39,3.40
2011,07,31,02,40,3.90
2011,07,31,02,41,2.50
2011,07,31,02,42,1.70
2011,07,31,02,43,0.00
2011,07,31,02,44,0.00
2011,07,31,02,45,0.00
2011,07,31,02,46,0.00
2011,07,31,02,47,0.10
2011,07,31,02,48,0.00
2011,07,31,02,49,0.10
2011,07,31,02,50,0.00
2011,07,31,02,51,0.00
2011,07,31,02,52,0.00
2011,07,31,02,53,0.00
2011,07,31,02,54,0.00
2011,07,31,02,55,0.00
2011,07,31,02,56,0.00
2011,07,31,02,57,0.00
2011,07,31,02,58,0.00
2011,07,31,02,59,0.00
2011,07,31,03,00,1.20
2011,07,31,03,01,2.10
2011,07,31,03,02,0.90
2011,07,31,03,03,0.00
2011,07,31,03,04,0.00
2011,07,31,03,05,0.10
2011,07,31,03,06,0.10
2011,07,31,03,07,0.00
2011,07,31,03,08,1.00
2011,07,31,03,09,0.20
2011,07,31,03,10,0.00
2011,07,31,03,11,0.00
2011,07,31,03,12,1.80
2011,07,31,03,13,2.60
2011,07,31,03,14,2.80
2011,07,31,03,15,2.10
2011,07,31,03,16,2.40
2011,07,31,03,17,1.70
2011,07,31,03,18,0.00
2011,07,31,03,19,0.00
2011,07,31,03,20,0.00
2011,07,31,03,21,0.80
2011,07,31,03,22,2.60
2011,07,31,03,23,1.70
2011,07,31,03,24,0.00
2011,07,31,03,25,0.00
2011,07,31,03,26,0.00
2011,07,31,03,27,0.00
2011,07,31,03,28,0.00
2011,07,31,03,29,0.00
2011,07,31,03,30,0.00
2011,07,31,03,31,0.00
2011,07,31,03,32,0.00
2011,07,31,03,33,0.00
2011,07,31,03,34,0.00
2011,07,31,03,35,0.00
2011,07,31,03,36,0.00
2011,07,31,03,37,0.00
2011,07,31,03,38,0.00
2011,07,31,03,39,0.00
2011,07,31,03,40,0.00
2011,07,31,03,41,0.00
2011,07,31,03,42,0.00
2011,07,31,03,43,0.00
2011,07,31,03,44,0.10
2011,07,31,03,45,0.00
2011,07,31,03,46,2.30
2011,07,31,03,47,2.10
2011,07,31,03,48,1.90
2011,07,31,03,49,3.00
2011,07,31,03,50,2.80
2011,07,31,03,51,3.30
2011,07,31,03,52,2.40
2011,07,31,03,53,0.10
2011,07,31,03,54,0.00
2011,07,31,03,55,0.00
2011,07,31,03,56,0.00
2011,07,31,03,57,0.00
2011,07,31,03,58,0.00
2011,07,31,03,59,0.00
2011,07,31,04,00,0.00
2011,07,31,04,01,0.00
2011,07,31,04,02,0.00
2011,07,31,04,03,0.00
2011,07,31,04,04,0.00
2011,07,31,04,05,0.00
2011,07,31,04,06,0.00
2011,07,31,04,07,0.00
2011,07,31,04,08,0.00
2011,07,31,04,09,0.00
2011,07,31,04,10,1.70
2011,07,31,04,11,2.90
2011,07,31,04,12,2.10
2011,07,31,04,13,0.80
2011,07,31,04,14,0.00
2011,07,31,04,15,1.40
2011,07,31,04,16,1.50
2011,07,31,04,17,0.00
2011,07,31,04,18,0.00
2011,07,31,04,19,0.00
2011,07,31,04,20,0.00
2011,07,31,04,21,0.00
2011,07,31,04,22,0.10
2011,07,31,04,23,2.30
2011,07,31,04,24,2.30
2011,07,31,04,25,2.90
2011,07,31,04,26,0.40
2011,07,31,04,27,0.10
2011,07,31,04,28,0.00
2011,07,31,04,29,0.00
2011,07,31,04,30,1.90
2011,07,31,04,31,0.50
2011,07,31,04,32,0.00
2011,07,31,04,33,0.00
2011,07,31,04,34,0.00
2011,07,31,04,35,0.00
2011,07,31,04,36,0.00
2011,07,31,04,37,0.60
2011,07,31,04,38,1.00
2011,07,31,04,39,0.00
2011,07,31,04,40,0.00
2011,07,31,04,41,0.00
2011,07,31,04,42,0.00
2011,07,31,04,43,1.70
2011,07,31,04,44,1.10
2011,07,31,04,45,0.10
2011,07,31,04,46,0.00
2011,07,31,04,47,0.00
2011,07,31,04,48,0.00
2011,07,31,04,49,1.10
2011,07,31,04,50,2.80
2011,07,31,04,51,2.60
2011,07,31,04,52,2.20
2011,07,31,04,53,1.90
2011,07,31,04,54,0.00
2011,07,31,04,55,0.00
2011,07,31,04,56,0.00
2011,07,31,04,57,0.00
2011,07,31,04,58,0.00
2011,07,31,04,59,0.00
2011,07,31,05,00,0.00
2011,07,31,05,01,0.00
2011,07,31,05,02,0.00
2011,07,31,05,03,0.00
2011,07,31,05,04,1.20
2011,07,31,05,05,0.00
2011,07,31,05,06,1.60
2011,07,31,05,07,2.60
2011,07,31,05,08,1.40
2011,07,31,05,09,0.00
2011,07,31,05,10,0.40
2011,07,31,05,11,3.00
2011,07,31,05,12,2.90
2011,07,31,05,13,2.20
2011,07,31,05,14,0.50
2011,07,31,05,15,0.10
2011,07,31,05,16,0.10
2011,07,31,05,17,2.10
2011,07,31,05,18,1.80
2011,07,31,05,19,1.60
2011,07,31,05,20,1.90
2011,07,31,05,21,0.60
2011,07,31,05,22,0.00
2011,07,31,05,23,0.00
2011,07,31,05,24,0.10
2011,07,31,05,25,0.00
2011,07,31,05,26,0.00
2011,07,31,05,27,0.00
2011,07,31,05,28,0.00
2011,07,31,05,29,0.00
2011,07,31,05,30,0.00
2011,07,31,05,31,0.00
2011,07,31,05,32,0.00
2011,07,31,05,33,0.00
2011,07,31,05,34,0.00
2011,07,31,05,35,0.00
2011,07,31,05,36,0.00
2011,07,31,05,37,0.00
2011,07,31,05,38,0.00
2011,07,31,05,39,0.00
2011,07,31,05,40,0.00
2011,07,31,05,41,0.00
2011,07,31,05,42,0.00
2011,07,31,05,43,0.00
2011,07,31,05,44,0.00
2011,07,31,05,45,0.00
2011,07,31,05,46,0.00
2011,07,31,05,47,0.00
2011,07,31,05,48,0.00
2011,07,31,05,49,0.00
2011,07,31,05,50,0.00
2011,07,31,05,51,0.00
2011,07,31,05,52,0.00
2011,07,31,05,53,0.00
2011,07,31,05,54,0.00
2011,07,31,05,55,0.00
2011,07,31,05,56,0.00
2011,07,31,05,57,0.00
2011,07,31,05,58,0.00
2011,07,31,05,59,0.00
2011,07,31,06,00,0.00
2011,07,31,06,01,0.00
2011,07,31,06,02,0.00
2011,07,31,06,03,0.00
2011,07,31,06,04,0.00
2011,07,31,06,05,0.00
2011,07,31,06,06,0.00
2011,07,31,06,07,0.00
2011,07,31,06,08,0.00
2011,07,31,06,09,0.00
2011,07,31,06,10,0.00
2011,07,31,06,11,0.00
2011,07,31,06,12,0.00
2011,07,31,06,13,0.00
2011,07,31,06,14,0.60
2011,07,31,06,15,1.70
2011,07,31,06,16,0.90
2011,07,31,06,17,1.90
2011,07,31,06,18,0.90
2011,07,31,06,19,0.00
2011,07,31,06,20,1.00
2011,07,31,06,21,1.80
2011,07,31,06,22,2.60
2011,07,31,06,23,2.10
2011,07,31,06,24,2.50
2011,07,31,06,25,0.70
2011,07,31,06,26,2.60
2011,07,31,06,27,2.90
2011,07,31,06,28,3.00
2011,07,31,06,29,0.60
2011,07,31,06,30,0.30
2011,07,31,06,31,4.10
2011,07,31,06,32,3.50
2011,07,31,06,33,4.20
2011,07,31,06,34,1.10
2011,07,31,06,35,3.50
2011,07,31,06,36,1.90
2011,07,31,06,37,6.50
2011,07,31,06,38,3.30
2011,07,31,06,39,0.90
2011,07,31,06,40,0.10
2011,07,31,06,41,3.40
2011,07,31,06,42,3.10
2011,07,31,06,43,2.20
2011,07,31,06,44,0.40
2011,07,31,06,45,2.60
2011,07,31,06,46,2.50
2011,07,31,06,47,1.30
2011,07,31,06,48,0.00
2011,07,31,06,49,1.40
2011,07,31,06,50,4.80
2011,07,31,06,51,1.40
2011,07,31,06,52,2.40
2011,07,31,06,53,0.20
2011,07,31,06,54,0.90
2011,07,31,06,55,0.00
2011,07,31,06,56,1.30
2011,07,31,06,57,3.20
2011,07,31,06,58,3.40
2011,07,31,06,59,0.30
2011,07,31,07,00,1.70
2011,07,31,07,01,2.00
2011,07,31,07,02,2.00
2011,07,31,07,03,3.50
2011,07,31,07,04,0.00
2011,07,31,07,05,0.90
2011,07,31,07,06,0.00
2011,07,31,07,07,0.00
2011,07,31,07,08,0.00
2011,07,31,07,09,0.00
2011,07,31,07,10,0.30
2011,07,31,07,11,6.00
2011,07,31,07,12,6.90
2011,07,31,07,13,3.20
2011,07,31,07,14,5.50
2011,07,31,07,15,3.50
2011,07,31,07,16,4.90
2011,07,31,07,17,1.60
2011,07,31,07,18,1.40
2011,07,31,07,19,0.80
2011,07,31,07,20,4.80
2011,07,31,07,21,3.60
2011,07,31,07,22,1.20
2011,07,31,07,23,2.70
2011,07,31,07,24,5.70
2011,07,31,07,25,5.60
2011,07,31,07,26,1.10
2011,07,31,07,27,1.60
2011,07,31,07,28,1.50
2011,07,31,07,29,6.80
2011,07,31,07,30,6.70
2011,07,31,07,31,4.60
2011,07,31,07,32,4.80
2011,07,31,07,33,1.30
2011,07,31,07,34,1.30
2011,07,31,07,35,2.40
2011,07,31,07,36,4.40
2011,07,31,07,37,1.50
2011,07,31,07,38,4.50
2011,07,31,07,39,2.20
2011,07,31,07,40,4.50
2011,07,31,07,41,4.40
2011,07,31,07,42,0.40
2011,07,31,07,43,0.40
2011,07,31,07,44,2.70
2011,07,31,07,45,1.00
2011,07,31,07,46,3.10
2011,07,31,07,47,3.50
2011,07,31,07,48,4.30
2011,07,31,07,49,6.80
2011,07,31,07,50,2.90
2011,07,31,07,51,4.60
2011,07,31,07,52,7.00
2011,07,31,07,53,2.90
2011,07,31,07,54,1.90
2011,07,31,07,55,3.90
2011,07,31,07,56,4.30
2011,07,31,07,57,1.30
2011,07,31,07,58,1.30
2011,07,31,07,59,0.50
2011,07,31,08,00,4.70
2011,07,31,08,01,3.50
2011,07,31,08,02,4.30
2011,07,31,08,03,2.10
2011,07,31,08,04,0.20
2011,07,31,08,05,6.00
2011,07,31,08,06,5.50
2011,07,31,08,07,4.30
2011,07,31,08,08,4.20
2011,07,31,08,09,7.80
2011,07,31,08,10,7.60
2011,07,31,08,11,6.70
2011,07,31,08,12,4.60
2011,07,31,08,13,6.30
2011,07,31,08,14,4.40
2011,07,31,08,15,4.80
2011,07,31,08,16,5.40
2011,07,31,08,17,6.30
2011,07,31,08,18,5.10
2011,07,31,08,19,2.30
2011,07,31,08,20,4.50
2011,07,31,08,21,4.80
2011,07,31,08,22,2.50
2011,07,31,08,23,5.10
2011,07,31,08,24,9.20
2011,07,31,08,25,6.40
2011,07,31,08,26,8.50
2011,07,31,08,27,7.60
2011,07,31,08,28,3.00
2011,07,31,08,29,1.30
2011,07,31,08,30,0.60
2011,07,31,08,31,3.80
2011,07,31,08,32,6.80
2011,07,31,08,33,7.20
2011,07,31,08,34,7.20
2011,07,31,08,35,5.60
2011,07,31,08,36,6.80
2011,07,31,08,37,6.50
2011,07,31,08,38,1.10
2011,07,31,08,39,4.00
2011,07,31,08,40,7.50
2011,07,31,08,41,4.60
2011,07,31,08,42,4.60
2011,07,31,08,43,6.20
2011,07,31,08,44,5.70
2011,07,31,08,45,6.80
2011,07,31,08,46,4.00
2011,07,31,08,47,6.10
2011,07,31,08,48,3.30
2011,07,31,08,49,2.20
2011,07,31,08,50,3.80
2011,07,31,08,51,4.80
2011,07,31,08,52,3.30
2011,07,31,08,53,6.30
2011,07,31,08,54,4.90
2011,07,31,08,55,7.90
2011,07,31,08,56,4.30
2011,07,31,08,57,3.10
2011,07,31,08,58,5.80
2011,07,31,08,59,7.40
2011,07,31,09,00,3.50
2011,07,31,09,01,6.70
2011,07,31,09,02,4.70
2011,07,31,09,03,4.90
2011,07,31,09,04,7.00
2011,07,31,09,05,5.50
2011,07,31,09,06,6.00
2011,07,31,09,07,5.80
2011,07,31,09,08,7.30
2011,07,31,09,09,8.10
2011,07,31,09,10,7.70
2011,07,31,09,11,7.00
2011,07,31,09,12,6.70
2011,07,31,09,13,9.20
2011,07,31,09,14,10.10
2011,07,31,09,15,9.30
2011,07,31,09,16,7.40
2011,07,31,09,17,10.10
2011,07,31,09,18,9.00
2011,07,31,09,19,9.10
2011,07,31,09,20,8.20
2011,07,31,09,21,7.80
2011,07,31,09,22,7.70
2011,07,31,09,23,7.70
2011,07,31,09,24,4.60
2011,07,31,09,25,8.90
2011,07,31,09,26,8.60
2011,07,31,09,27,4.60
2011,07,31,09,28,2.70
2011,07,31,09,29,6.10
2011,07,31,09,30,6.40
2011,07,31,09,31,4.10
2011,07,31,09,32,1.40
2011,07,31,09,33,2.70
2011,07,31,09,34,4.30
2011,07,31,09,35,3.70
2011,07,31,09,36,5.80
2011,07,31,09,37,6.20
2011,07,31,09,38,3.10
2011,07,31,09,39,5.80
2011,07,31,09,40,3.40
2011,07,31,09,41,2.10
2011,07,31,09,42,2.80
2011,07,31,09,43,0.00
2011,07,31,09,44,0.00
2011,07,31,09,45,0.50
2011,07,31,09,46,4.00
2011,07,31,09,47,2.20
2011,07,31,09,48,0.00
2011,07,31,09,49,0.00
2011,07,31,09,50,0.00
2011,07,31,09,51,0.00
2011,07,31,09,52,1.40
2011,07,31,09,53,0.40
2011,07,31,09,54,0.00
2011,07,31,09,55,0.00
2011,07,31,09,56,0.00
2011,07,31,09,57,2.80
2011,07,31,09,58,0.50
2011,07,31,09,59,1.30
2011,07,31,10,00,3.30
2011,07,31,10,01,6.10
2011,07,31,10,02,2.20
2011,07,31,10,03,0.30
2011,07,31,10,04,0.00
2011,07,31,10,05,1.80
2011,07,31,10,06,2.20
2011,07,31,10,07,0.70
2011,07,31,10,08,0.60
2011,07,31,10,09,1.40
2011,07,31,10,10,1.80
2011,07,31,10,11,0.30
2011,07,31,10,12,2.60
2011,07,31,10,13,2.00
2011,07,31,10,14,3.30
2011,07,31,10,15,1.40
2011,07,31,10,16,3.40
2011,07,31,10,17,4.30
2011,07,31,10,18,6.40
2011,07,31,10,19,6.80
2011,07,31,10,20,6.60
2011,07,31,10,21,3.20
2011,07,31,10,22,0.60
2011,07,31,10,23,2.70
2011,07,31,10,24,6.20
2011,07,31,10,25,6.80
2011,07,31,10,26,6.50
2011,07,31,10,27,4.70
2011,07,31,10,28,5.40
2011,07,31,10,29,4.70
2011,07,31,10,30,5.30
2011,07,31,10,31,4.90
2011,07,31,10,32,4.80
2011,07,31,10,33,4.30
2011,07,31,10,34,3.80
2011,07,31,10,35,2.40
2011,07,31,10,36,2.70
2011,07,31,10,37,3.60
2011,07,31,10,38,6.40
2011,07,31,10,39,5.80
2011,07,31,10,40,5.10
2011,07,31,10,41,3.80
2011,07,31,10,42,1.10
2011,07,31,10,43,3.80
2011,07,31,10,44,2.00
2011,07,31,10,45,2.90
2011,07,31,10,46,8.90
2011,07,31,10,47,7.10
2011,07,31,10,48,8.90
2011,07,31,10,49,7.30
2011,07,31,10,50,4.30
2011,07,31,10,51,7.00
2011,07,31,10,52,6.00
2011,07,31,10,53,6.40
2011,07,31,10,54,4.40
2011,07,31,10,55,5.60
2011,07,31,10,56,9.00
2011,07,31,10,57,8.90
2011,07,31,10,58,9.20
2011,07,31,10,59,8.40
2011,07,31,11,00,8.20
2011,07,31,11,01,10.70
2011,07,31,11,02,8.90
2011,07,31,11,03,9.40
2011,07,31,11,04,8.90
2011,07,31,11,05,8.70
2011,07,31,11,06,7.50
2011,07,31,11,07,9.30
2011,07,31,11,08,10.80
2011,07,31,11,09,7.30
2011,07,31,11,10,8.60
2011,07,31,11,11,7.70
2011,07,31,11,12,9.00
2011,07,31,11,13,11.10
2011,07,31,11,14,10.90
2011,07,31,11,15,10.40
2011,07,31,11,16,12.30
2011,07,31,11,17,10.00
2011,07,31,11,18,8.20
2011,07,31,11,19,7.30
2011,07,31,11,20,10.10
2011,07,31,11,21,6.90
2011,07,31,11,22,7.70
2011,07,31,11,23,9.10
2011,07,31,11,24,8.80
2011,07,31,11,25,8.40
2011,07,31,11,26,5.60
2011,07,31,11,27,6.80
2011,07,31,11,28,3.50
2011,07,31,11,29,3.50
2011,07,31,11,30,4.20
2011,07,31,11,31,8.00
2011,07,31,11,32,4.90
2011,07,31,11,33,7.00
2011,07,31,11,34,7.10
2011,07,31,11,35,7.70
2011,07,31,11,36,7.60
2011,07,31,11,37,5.90
2011,07,31,11,38,2.80
2011,07,31,11,39,0.30
2011,07,31,11,40,6.80
2011,07,31,11,41,6.20
2011,07,31,11,42,2.20
2011,07,31,11,43,6.60
2011,07,31,11,44,8.80
2011,07,31,11,45,6.00
2011,07,31,11,46,6.40
2011,07,31,11,47,3.80
2011,07,31,11,48,4.10
2011,07,31,11,49,5.10
2011,07,31,11,50,5.20
2011,07,31,11,51,3.70
2011,07,31,11,52,5.50
2011,07,31,11,53,3.80
2011,07,31,11,54,0.30
2011,07,31,11,55,0.20
2011,07,31,11,56,1.20
2011,07,31,11,57,5.20
2011,07,31,11,58,4.90
2011,07,31,11,59,6.30
2011,07,31,12,00,6.50
2011,07,31,12,01,7.70
2011,07,31,12,02,3.00
2011,07,31,12,03,3.80
2011,07,31,12,04,4.80
2011,07,31,12,05,1.20
2011,07,31,12,06,1.00
2011,07,31,12,07,6.40
2011,07,31,12,08,6.00
2011,07,31,12,09,6.60
2011,07,31,12,10,9.00
2011,07,31,12,11,3.90
2011,07,31,12,12,3.10
2011,07,31,12,13,1.80
2011,07,31,12,14,2.10
2011,07,31,12,15,1.70
2011,07,31,12,16,5.30
2011,07,31,12,17,5.40
2011,07,31,12,18,7.30
2011,07,31,12,19,6.20
2011,07,31,12,20,8.30
2011,07,31,12,21,6.30
2011,07,31,12,22,10.40
2011,07,31,12,23,9.30
2011,07,31,12,24,3.80
2011,07,31,12,25,3.90
2011,07,31,12,26,6.70
2011,07,31,12,27,3.40
2011,07,31,12,28,8.50
2011,07,31,12,29,8.40
2011,07,31,12,30,8.90
2011,07,31,12,31,10.50
2011,07,31,12,32,8.40
2011,07,31,12,33,4.70
2011,07,31,12,34,1.60
2011,07,31,12,35,7.50
2011,07,31,12,36,8.50
2011,07,31,12,37,8.40
2011,07,31,12,38,8.40
2011,07,31,12,39,6.60
2011,07,31,12,40,2.90
2011,07,31,12,41,7.40
2011,07,31,12,42,5.20
2011,07,31,12,43,5.10
2011,07,31,12,44,7.60
2011,07,31,12,45,3.90
2011,07,31,12,46,2.30
2011,07,31,12,47,5.10
2011,07,31,12,48,9.40
2011,07,31,12,49,5.20
2011,07,31,12,50,6.50
2011,07,31,12,51,6.00
2011,07,31,12,52,5.20
2011,07,31,12,53,6.00
2011,07,31,12,54,8.90
2011,07,31,12,55,7.50
2011,07,31,12,56,4.80
2011,07,31,12,57,4.50
2011,07,31,12,58,7.60
2011,07,31,12,59,7.10
2011,07,31,13,00,4.90
2011,07,31,13,01,7.90
2011,07,31,13,02,6.40
2011,07,31,13,03,6.40
2011,07,31,13,04,7.20
2011,07,31,13,05,5.40
2011,07,31,13,06,7.90
2011,07,31,13,07,6.10
2011,07,31,13,08,5.50
2011,07,31,13,09,4.40
2011,07,31,13,10,6.40
2011,07,31,13,11,6.00
2011,07,31,13,12,2.20
2011,07,31,13,13,6.60
2011,07,31,13,14,7.20
2011,07,31,13,15,8.10
2011,07,31,13,16,8.00
2011,07,31,13,17,7.10
2011,07,31,13,18,3.50
2011,07,31,13,19,7.30
2011,07,31,13,20,5.60
2011,07,31,13,21,9.10
2011,07,31,13,22,11.00
2011,07,31,13,23,9.60
2011,07,31,13,24,10.00
2011,07,31,13,25,8.80
2011,07,31,13,26,7.80
2011,07,31,13,27,8.00
2011,07,31,13,28,12.50
2011,07,31,13,29,7.70
2011,07,31,13,30,10.00
2011,07,31,13,31,8.40
2011,07,31,13,32,7.50
2011,07,31,13,33,10.30
2011,07,31,13,34,10.00
2011,07,31,13,35,9.10
2011,07,31,13,36,10.10
2011,07,31,13,37,10.90
2011,07,31,13,38,7.30
2011,07,31,13,39,5.20
2011,07,31,13,40,8.30
2011,07,31,13,41,6.40
2011,07,31,13,42,4.70
2011,07,31,13,43,9.10
2011,07,31,13,44,5.70
2011,07,31,13,45,4.30
2011,07,31,13,46,8.80
2011,07,31,13,47,4.80
2011,07,31,13,48,5.80
2011,07,31,13,49,2.60
2011,07,31,13,50,4.40
2011,07,31,13,51,5.80
2011,07,31,13,52,6.40
2011,07,31,13,53,7.40
2011,07,31,13,54,5.60
2011,07,31,13,55,8.50
2011,07,31,13,56,8.80
2011,07,31,13,57,4.30
2011,07,31,13,58,6.80
2011,07,31,13,59,7.90
2011,07,31,14,00,5.60
2011,07,31,14,01,5.40
2011,07,31,14,02,2.60
2011,07,31,14,03,6.40
2011,07,31,14,04,2.80
2011,07,31,14,05,3.10
2011,07,31,14,06,4.20
2011,07,31,14,07,6.00
2011,07,31,14,08,5.20
2011,07,31,14,09,3.20
2011,07,31,14,10,3.40
2011,07,31,14,11,1.70
2011,07,31,14,12,4.20
2011,07,31,14,13,3.50
2011,07,31,14,14,4.50
2011,07,31,14,15,0.90
2011,07,31,14,16,4.00
2011,07,31,14,17,7.80
2011,07,31,14,18,5.80
2011,07,31,14,19,5.60
2011,07,31,14,20,5.70
2011,07,31,14,21,9.20
2011,07,31,14,22,7.50
2011,07,31,14,23,9.50
2011,07,31,14,24,8.20
2011,07,31,14,25,6.30
2011,07,31,14,26,4.30
2011,07,31,14,27,6.10
2011,07,31,14,28,8.80
2011,07,31,14,29,10.40
2011,07,31,14,30,3.60
2011,07,31,14,31,7.20
2011,07,31,14,32,11.40
2011,07,31,14,33,13.70
2011,07,31,14,34,7.00
2011,07,31,14,35,3.40
2011,07,31,14,36,7.30
2011,07,31,14,37,7.80
2011,07,31,14,38,10.70
2011,07,31,14,39,9.00
2011,07,31,14,40,6.40
2011,07,31,14,41,5.30
2011,07,31,14,42,3.20
2011,07,31,14,43,9.90
2011,07,31,14,44,8.10
2011,07,31,14,45,9.10
2011,07,31,14,46,10.90
2011,07,31,14,47,6.20
2011,07,31,14,48,6.90
2011,07,31,14,49,3.50
2011,07,31,14,50,3.90
2011,07,31,14,51,5.90
2011,07,31,14,52,2.80
2011,07,31,14,53,2.50
2011,07,31,14,54,4.70
2011,07,31,14,55,8.40
2011,07,31,14,56,4.00
2011,07,31,14,57,4.60
2011,07,31,14,58,5.00
2011,07,31,14,59,3.20
2011,07,31,15,00,11.20
2011,07,31,15,01,11.00
2011,07,31,15,02,10.40
2011,07,31,15,03,8.50
2011,07,31,15,04,11.80
2011,07,31,15,05,10.30
2011,07,31,15,06,8.10
2011,07,31,15,07,5.90
2011,07,31,15,08,9.10
2011,07,31,15,09,6.00
2011,07,31,15,10,6.20
2011,07,31,15,11,3.00
2011,07,31,15,12,9.20
2011,07,31,15,13,7.60
2011,07,31,15,14,4.60
2011,07,31,15,15,4.70
2011,07,31,15,16,7.30
2011,07,31,15,17,1.90
2011,07,31,15,18,3.60
2011,07,31,15,19,6.90
2011,07,31,15,20,3.50
2011,07,31,15,21,6.10
2011,07,31,15,22,5.20
2011,07,31,15,23,4.20
2011,07,31,15,24,6.80
2011,07,31,15,25,0.60
2011,07,31,15,26,8.50
2011,07,31,15,27,6.40
2011,07,31,15,28,5.50
2011,07,31,15,29,8.20
2011,07,31,15,30,9.50
2011,07,31,15,31,6.30
2011,07,31,15,32,5.40
2011,07,31,15,33,7.70
2011,07,31,15,34,5.70
2011,07,31,15,35,8.90
2011,07,31,15,36,8.10
2011,07,31,15,37,5.80
2011,07,31,15,38,4.30
2011,07,31,15,39,11.20
2011,07,31,15,40,7.40
2011,07,31,15,41,7.00
2011,07,31,15,42,5.20
2011,07,31,15,43,9.20
2011,07,31,15,44,5.80
2011,07,31,15,45,8.40
2011,07,31,15,46,2.30
2011,07,31,15,47,4.80
2011,07,31,15,48,4.70
2011,07,31,15,49,4.70
2011,07,31,15,50,4.50
2011,07,31,15,51,5.60
2011,07,31,15,52,5.60
2011,07,31,15,53,6.50
2011,07,31,15,54,6.00
2011,07,31,15,55,5.60
2011,07,31,15,56,8.50
2011,07,31,15,57,8.60
2011,07,31,15,58,6.20
2011,07,31,15,59,9.70
2011,07,31,16,00,9.70
2011,07,31,16,01,8.20
2011,07,31,16,02,7.80
2011,07,31,16,03,12.60
2011,07,31,16,04,12.00
2011,07,31,16,05,9.90
2011,07,31,16,06,11.00
2011,07,31,16,07,13.90
2011,07,31,16,08,12.90
2011,07,31,16,09,10.20
2011,07,31,16,10,9.10
2011,07,31,16,11,13.60
2011,07,31,16,12,7.20
2011,07,31,16,13,8.70
2011,07,31,16,14,12.50
2011,07,31,16,15,10.80
2011,07,31,16,16,9.60
2011,07,31,16,17,8.40
2011,07,31,16,18,8.20
2011,07,31,16,19,1.70
2011,07,31,16,20,10.50
2011,07,31,16,21,4.70
2011,07,31,16,22,7.70
2011,07,31,16,23,3.60
2011,07,31,16,24,6.80
2011,07,31,16,25,6.90
2011,07,31,16,26,8.30
2011,07,31,16,27,8.40
2011,07,31,16,28,2.30
2011,07,31,16,29,9.30
2011,07,31,16,30,5.60
2011,07,31,16,31,6.00
2011,07,31,16,32,5.60
2011,07,31,16,33,6.70
2011,07,31,16,34,0.70
2011,07,31,16,35,3.50
2011,07,31,16,36,2.40
2011,07,31,16,37,2.60
2011,07,31,16,38,4.40
2011,07,31,16,39,4.90
2011,07,31,16,40,6.00
2011,07,31,16,41,6.80
2011,07,31,16,42,7.90
2011,07,31,16,43,4.50
2011,07,31,16,44,9.00
2011,07,31,16,45,8.80
2011,07,31,16,46,11.70
2011,07,31,16,47,7.80
2011,07,31,16,48,6.30
2011,07,31,16,49,4.10
2011,07,31,16,50,7.20
2011,07,31,16,51,3.50
2011,07,31,16,52,8.50
2011,07,31,16,53,5.60
2011,07,31,16,54,4.60
2011,07,31,16,55,5.10
2011,07,31,16,56,6.30
2011,07,31,16,57,7.60
2011,07,31,16,58,5.20
2011,07,31,16,59,4.30
2011,07,31,17,00,3.80
2011,07,31,17,01,2.30
2011,07,31,17,02,3.60
2011,07,31,17,03,2.80
2011,07,31,17,04,1.90
2011,07,31,17,05,2.90
2011,07,31,17,06,2.70
2011,07,31,17,07,5.20
2011,07,31,17,08,4.10
2011,07,31,17,09,6.80
2011,07,31,17,10,2.60
2011,07,31,17,11,4.70
2011,07,31,17,12,3.90
2011,07,31,17,13,6.80
2011,07,31,17,14,5.30
2011,07,31,17,15,2.70
2011,07,31,17,16,4.30
2011,07,31,17,17,4.10
2011,07,31,17,18,3.30
2011,07,31,17,19,3.90
2011,07,31,17,20,3.50
2011,07,31,17,21,5.40
2011,07,31,17,22,3.70
2011,07,31,17,23,2.80
2011,07,31,17,24,2.80
2011,07,31,17,25,4.50
2011,07,31,17,26,3.70
2011,07,31,17,27,2.10
2011,07,31,17,28,4.70
2011,07,31,17,29,4.40
2011,07,31,17,30,2.70
2011,07,31,17,31,3.50
2011,07,31,17,32,4.70
2011,07,31,17,33,2.70
2011,07,31,17,34,5.60
2011,07,31,17,35,1.90
2011,07,31,17,36,5.50
2011,07,31,17,37,1.00
2011,07,31,17,38,1.80
2011,07,31,17,39,3.70
2011,07,31,17,40,1.60
2011,07,31,17,41,6.90
2011,07,31,17,42,7.10
2011,07,31,17,43,4.20
2011,07,31,17,44,3.10
2011,07,31,17,45,7.80
2011,07,31,17,46,8.30
2011,07,31,17,47,7.60
2011,07,31,17,48,2.00
2011,07,31,17,49,1.80
2011,07,31,17,50,1.30
2011,07,31,17,51,3.40
2011,07,31,17,52,5.30
2011,07,31,17,53,4.20
2011,07,31,17,54,7.30
2011,07,31,17,55,6.50
2011,07,31,17,56,1.80
2011,07,31,17,57,0.10
2011,07,31,17,58,2.20
2011,07,31,17,59,2.10
2011,07,31,18,00,3.20
2011,07,31,18,01,4.00
2011,07,31,18,02,3.30
2011,07,31,18,03,5.20
2011,07,31,18,04,6.50
2011,07,31,18,05,5.10
2011,07,31,18,06,1.50
2011,07,31,18,07,6.00